Theta_e
301 303 303 304 304 305 305 305 305 305 307 306 304 304 303 303 304 304 304 304 302 305 307 305 305 306 305 306 303 299 300 301 298 297 296 297 298 298 298 298 298 298 299 299 300 300 301 301 302 302 302 302 303 302 305 312 316 318 317 316 316 314 311 312 315 318 322 326 326 324 322 322 324 324 324 323 322 321 321 320 321 327 332 330 325 326
300 302 302 302 304 305 304 303 303 303 305 306 305 304 303 303 304 304 303 303 302 304 307 304 305 307 304 306 303 299 301 299 294 293 293 294 296 297 297 297 298 298 298 299 300 300 301 301 301 302 302 302 303 303 304 308 312 314 315 315 314 313 310 309 309 310 314 320 323 324 323 323 324 323 323 323 323 323 323 322 322 325 327 325 324 326
301 301 301 301 302 303 303 302 302 302 303 306 305 303 304 303 303 303 301 301 302 304 307 305 304 307 305 305 302 298 298 295 292 294 293 293 294 294 294 294 296 297 298 299 299 300 300 301 301 302 302 302 302 303 303 305 308 310 312 312 312 311 311 309 308 307 307 310 316 320 322 323 323 322 321 322 322 322 323 322 321 322 322 319 320 322
302 301 300 300 301 301 302 302 302 302 301 302 302 303 304 302 301 303 301 299 301 302 304 304 303 307 306 304 299 295 294 292 292 293 292 292 292 290 291 291 293 295 296 297 297 298 299 300 301 301 301 302 302 302 303 304 305 306 307 308 308 309 309 308 307 306 306 306 309 314 319 321 321 321 320 320 320 320 321 322 322 321 320 319 320 320
302 300 297 298 300 300 301 301 301 302 302 301 300 301 302 302 301 302 301 300 302 300 300 302 305 308 307 305 300 294 292 292 292 291 290 290 289 289 290 290 291 291 292 294 295 296 297 298 299 299 300 301 301 302 302 302 303 304 305 306 306 307 307 307 307 306 306 307 307 309 314 320 322 321 320 320 318 318 319 320 321 322 322 321 321 321
302 299 297 299 299 298 301 301 300 302 302 301 300 300 302 304 303 301 301 302 303 301 301 301 305 312 311 305 299 295 294 292 290 289 288 288 288 288 289 288 288 289 290 291 292 293 295 296 297 298 299 300 300 300 300 301 301 302 303 304 305 306 306 306 306 306 307 308 309 309 310 317 322 322 322 321 318 317 318 319 319 320 322 322 322 324
302 298 297 300 300 298 300 300 299 300 300 301 300 299 302 303 303 303 301 302 304 303 300 298 303 312 310 302 294 293 293 291 289 288 288 288 287 287 287 286 286 287 289 290 291 292 293 294 295 296 297 297 298 298 298 299 300 301 302 303 304 305 305 306 306 307 307 308 309 310 311 313 317 319 320 320 320 320 320 319 318 319 320 320 321 323
300 299 298 298 299 298 299 299 299 299 299 300 298 297 299 300 301 304 302 302 305 301 297 298 302 304 305 301 293 291 293 291 289 288 287 287 287 286 286 285 285 285 286 288 289 291 291 292 293 293 294 295 296 296 297 298 299 300 301 302 303 303 304 305 305 306 306 306 307 309 310 311 312 314 315 318 320 322 322 319 318 319 320 320 319 321
297 302 301 298 299 298 299 298 298 298 298 299 297 296 297 297 300 303 301 302 302 299 300 302 299 298 306 305 294 293 296 292 289 287 286 286 285 284 284 283 283 283 284 286 288 289 289 290 291 291 292 293 294 295 296 297 297 298 299 300 301 302 303 303 304 304 304 304 305 306 307 308 309 310 311 313 315 317 319 317 315 317 319 319 319 320
297 299 298 298 300 299 298 296 295 297 298 296 295 296 296 296 298 300 301 303 302 300 301 302 299 298 307 306 295 294 297 292 289 287 285 285 283 282 282 281 282 283 284 286 286 287 288 288 290 290 292 293 293 294 294 295 295 296 297 298 299 300 301 301 302 302 302 302 302 303 304 304 305 305 306 307 309 310 311 311 311 313 316 317 318 319
295 294 296 299 299 297 297 295 294 296 297 296 297 299 299 299 300 302 303 303 302 300 299 301 300 298 303 303 294 293 294 290 289 286 284 283 282 281 280 279 280 282 283 284 285 286 287 288 289 290 291 292 292 293 294 294 294 295 296 296 297 298 298 299 300 300 301 301 301 302 303 303 303 303 303 303 304 305 306 307 308 309 312 314 317 318
294 295 297 298 296 295 297 297 294 294 295 298 304 303 301 301 302 304 304 301 300 301 299 298 297 296 300 299 291 289 288 287 287 285 282 282 281 280 279 278 279 280 281 283 284 285 286 288 288 289 290 291 292 292 293 293 293 294 294 295 295 296 297 297 298 299 300 301 302 302 303 303 303 303 303 303 303 303 304 304 305 305 307 309 312 315
298 297 295 296 296 295 298 299 296 296 297 300 304 303 300 299 300 301 301 300 299 298 295 293 295 297 298 294 289 287 285 284 284 283 281 281 280 279 278 277 278 279 280 281 282 284 285 286 286 287 288 288 290 290 291 291 292 292 293 293 294 295 295 296 296 297 298 300 301 302 302 303 304 304 304 304 303 304 304 304 304 304 304 305 306 309
299 297 295 296 297 294 295 298 298 298 299 299 301 302 300 299 299 300 299 298 299 298 293 292 296 299 298 291 286 285 284 283 282 281 281 280 279 279 278 277 277 278 279 280 281 282 283 283 284 285 285 286 287 287 288 289 290 291 291 292 293 293 294 295 295 296 297 298 299 300 301 302 302 303 304 304 303 303 304 304 304 304 304 304 304 305
298 299 296 295 295 293 294 295 297 299 299 298 300 301 299 300 301 299 299 300 299 297 294 293 296 300 299 291 285 284 283 282 282 281 280 280 279 278 277 277 277 277 278 279 280 280 281 282 283 283 284 284 285 285 286 287 287 288 289 290 291 292 293 294 294 295 296 296 297 298 299 300 301 302 302 303 303 303 303 303 304 304 305 305 305 304
295 297 294 291 290 291 292 291 293 297 299 298 298 299 298 300 301 298 296 298 297 297 296 295 295 292 290 286 283 283 282 281 282 281 280 279 278 278 277 276 276 277 277 278 279 280 280 281 282 282 283 283 284 284 285 285 286 286 287 288 289 290 291 292 293 294 295 295 296 296 297 298 299 300 301 301 302 302 303 303 303 304 304 304 304 304
294 296 294 291 291 290 289 291 291 293 298 298 297 299 296 296 300 298 294 292 294 296 296 295 294 288 286 286 284 282 282 281 281 280 279 279 278 277 277 276 276 276 277 278 278 279 280 281 281 281 282 282 283 283 284 284 285 285 286 286 287 288 289 290 291 292 293 294 295 295 296 297 297 298 299 300 300 301 302 302 303 303 303 304 304 304
291 294 293 291 294 291 287 289 291 290 294 298 298 298 294 293 298 299 297 296 295 295 295 295 295 291 291 291 285 282 283 281 280 280 279 279 278 277 276 275 275 276 277 278 278 279 279 280 281 281 281 282 282 282 283 283 284 284 285 285 286 286 287 288 289 290 291 292 294 294 295 296 296 297 298 298 299 300 301 301 302 302 303 303 303 303
289 293 292 288 290 292 289 291 294 291 291 294 295 295 295 297 299 297 297 298 296 296 296 296 295 293 293 291 284 282 283 281 280 279 278 278 277 277 276 275 275 276 277 278 278 279 279 279 280 280 281 281 282 282 282 283 283 284 284 284 285 285 286 286 287 288 289 290 291 293 294 294 295 296 296 297 298 299 300 301 301 302 302 303 303 304
288 291 293 289 287 289 292 294 294 292 291 292 292 294 295 296 298 296 296 297 297 298 296 296 297 294 290 287 283 283 283 280 280 279 278 278 277 276 275 274 274 275 276 277 278 278 279 279 279 280 280 281 281 282 282 282 283 283 283 284 284 285 285 285 286 287 287 288 289 291 292 293 294 295 296 296 297 298 299 300 301 301 302 303 303 304
288 289 291 290 288 290 292 290 287 287 288 290 292 295 294 293 295 295 295 296 297 299 298 297 297 292 286 284 283 282 281 279 279 278 277 277 276 275 275 274 274 274 275 277 277 278 278 279 279 280 280 280 281 281 281 282 282 282 283 283 283 284 284 285 285 286 286 287 287 289 290 291 293 294 295 296 296 297 298 299 300 300 301 302 303 303
287 288 288 288 289 291 289 284 283 284 284 286 288 289 290 290 292 294 295 293 293 296 297 297 296 290 283 282 281 280 280 279 278 278 277 276 275 275 274 273 273 273 274 276 276 277 278 278 279 279 280 280 280 281 281 281 282 282 282 282 283 283 283 284 284 285 285 286 286 287 288 290 291 292 294 295 296 296 297 298 299 299 300 301 302 303
285 285 286 286 287 288 285 281 282 282 283 285 285 285 286 287 288 292 294 293 291 293 293 293 296 289 281 280 280 278 279 278 277 277 277 276 275 274 274 273 273 273 274 275 276 276 277 278 278 278 279 279 280 280 280 280 281 281 281 282 282 282 283 283 283 284 284 285 285 286 287 288 289 290 291 293 295 296 296 297 298 298 299 300 301 302
285 285 285 285 285 286 284 282 282 283 284 285 284 283 283 284 285 286 287 287 288 291 292 294 295 288 280 280 280 278 278 277 277 277 276 275 275 274 273 273 272 273 273 274 275 275 276 276 277 278 278 279 279 279 279 280 280 280 280 281 281 282 282 283 283 283 284 284 285 285 285 286 287 288 289 290 292 294 295 296 296 297 298 299 300 301
284 284 283 284 284 286 286 285 285 284 284 284 283 281 281 282 283 284 284 285 286 288 290 293 293 286 281 280 279 278 278 277 277 276 275 275 274 273 273 272 272 272 273 274 274 275 275 275 276 276 277 277 278 278 278 279 279 279 279 280 280 281 281 282 282 283 283 283 284 284 285 285 286 287 288 289 290 291 293 295 296 296 297 298 299 300
283 282 282 283 283 283 284 285 285 283 282 282 282 281 281 281 282 284 285 285 285 286 286 287 287 283 280 280 279 279 278 277 276 276 275 275 274 273 272 272 272 271 271 272 273 273 274 274 274 275 275 276 276 277 277 278 278 278 279 279 279 280 280 281 281 282 282 283 283 284 284 285 285 286 286 288 289 290 291 293 295 295 296 296 298 299
281 280 281 282 282 281 283 283 282 281 280 281 281 280 280 280 281 283 283 282 283 283 283 283 283 282 281 280 280 279 278 277 277 276 275 275 274 273 272 271 271 270 270 270 271 272 272 273 273 274 274 275 275 276 276 277 277 278 278 278 279 279 279 280 280 281 281 282 282 283 284 284 285 285 285 286 288 289 290 291 293 294 295 295 296 298
281 281 280 280 281 281 280 280 279 279 279 280 280 280 280 280 280 281 281 281 281 281 281 281 281 280 281 281 280 279 278 277 276 275 275 274 273 272 271 271 270 269 269 269 270 271 271 272 272 273 273 274 274 275 275 276 276 277 277 278 278 278 279 279 280 280 280 281 281 282 283 283 284 284 285 285 286 287 289 290 292 293 294 294 295 296
280 281 279 278 280 280 278 278 278 278 279 279 279 280 280 280 279 280 280 280 280 280 280 280 279 279 280 280 279 277 276 276 275 274 273 272 272 272 271 271 270 269 268 267 268 269 270 270 271 271 272 273 273 274 275 275 276 276 277 277 277 278 278 278 279 279 280 280 281 281 282 283 283 284 284 285 285 286 287 289 290 291 293 293 294 295
279 280 279 277 279 279 278 277 277 277 278 279 279 279 279 279 279 278 278 279 279 278 279 280 279 279 279 278 276 274 273 274 273 272 272 271 271 271 271 271 271 270 269 268 268 268 268 269 269 270 271 271 272 273 273 274 275 275 276 276 277 277 277 278 278 279 279 280 280 281 281 282 283 283 284 284 285 285 286 287 288 290 291 292 293 293
278 279 279 278 278 279 279 277 277 277 277 278 278 278 277 277 277 277 277 278 278 278 278 278 278 278 276 274 273 272 272 272 272 271 270 269 269 269 269 269 269 269 269 269 269 268 268 268 268 269 269 270 271 272 272 273 274 274 275 275 276 276 276 277 278 278 279 279 280 280 281 281 282 282 283 284 284 285 285 286 287 289 290 291 292 292
279 278 279 279 278 278 278 277 277 277 276 276 277 277 277 277 277 278 278 278 278 278 278 278 278 278 275 271 271 271 270 271 271 270 269 268 268 267 267 267 267 267 267 268 268 268 268 268 268 268 268 269 269 270 271 272 273 274 274 275 275 275 276 276 277 277 278 278 279 279 280 280 281 282 282 283 284 284 285 286 287 288 289 290 291 292
277 277 278 278 277 277 276 276 277 277 276 276 276 276 277 277 277 277 278 278 278 278 278 278 277 276 273 271 272 271 269 269 269 268 268 268 267 267 266 266 266 266 266 267 267 267 267 267 267 267 268 268 268 269 269 269 271 272 273 274 274 274 275 275 276 276 277 278 278 279 279 280 280 281 282 282 283 284 285 285 286 287 288 289 290 291
275 277 277 276 276 276 275 275 276 275 275 275 274 274 275 276 277 277 277 277 277 277 277 276 275 272 270 271 272 270 268 268 267 267 267 267 266 267 266 266 266 266 267 267 267 267 266 266 266 266 266 267 267 268 268 268 269 270 271 272 272 273 273 274 275 275 276 277 277 278 278 279 279 280 281 281 282 283 284 285 285 286 287 288 289 290
276 277 276 275 275 275 275 275 274 274 274 274 273 273 274 274 274 275 275 276 276 275 275 275 274 271 269 269 268 267 267 267 266 266 266 265 265 266 265 265 266 266 266 267 267 267 267 267 267 267 266 266 266 267 267 268 269 270 270 271 271 271 272 272 273 274 275 276 276 277 277 278 278 279 280 281 281 282 283 283 284 285 286 287 288 289
276 276 275 274 274 273 274 274 274 273 273 273 274 275 274 273 274 274 275 276 276 274 274 275 273 269 267 266 266 266 267 267 266 265 265 265 265 264 264 264 264 265 265 266 266 266 266 267 267 267 267 267 267 267 267 267 268 269 270 270 271 271 271 271 272 273 273 274 275 275 276 277 277 278 279 280 281 281 282 282 283 284 285 286 287 288
276 276 275 274 273 273 273 273 274 274 273 274 276 274 273 273 274 274 274 276 274 271 271 273 272 268 266 266 266 267 267 268 268 266 264 264 264 264 264 264 264 265 265 265 265 265 265 265 266 267 267 267 267 266 266 267 267 268 269 270 270 270 271 271 271 272 272 273 274 274 275 275 276 277 278 279 279 280 281 282 282 282 283 284 286 286
275 275 275 274 274 273 273 272 273 273 273 275 275 272 270 271 271 272 274 275 272 268 268 271 270 267 266 265 266 267 268 270 271 268 265 264 264 264 264 264 264 264 264 264 265 265 265 265 265 266 266 266 266 266 266 266 267 267 268 269 269 269 270 270 270 271 272 272 273 273 274 274 275 276 277 277 278 279 280 281 281 281 281 282 284 285
274 274 274 274 274 273 272 272 273 272 274 275 274 271 270 270 270 271 274 275 271 265 266 269 268 266 266 265 265 266 268 272 273 268 265 265 265 265 265 265 264 264 264 264 264 264 264 265 265 265 265 265 265 265 265 266 266 266 267 267 267 268 268 269 269 270 271 271 272 272 273 274 274 275 275 276 277 278 279 280 280 280 280 282 282 283
274 274 274 274 273 273 272 272 272 272 274 274 272 270 270 270 271 272 274 275 270 265 265 267 267 266 266 265 265 266 268 271 271 267 265 265 265 264 264 264 264 264 264 263 263 263 264 264 264 265 265 265 265 265 265 265 265 265 266 266 266 266 267 267 268 269 270 270 271 271 272 273 273 274 274 275 276 277 278 279 279 279 280 281 282 283
273 273 272 272 272 272 273 272 271 272 274 272 270 270 270 271 272 273 274 274 270 266 266 267 267 267 266 265 265 266 268 268 267 265 265 264 264 264 264 264 263 263 263 263 263 263 263 264 264 264 264 264 264 264 265 265 265 265 265 265 265 265 266 266 267 268 269 270 270 271 271 272 273 273 274 274 275 276 277 278 278 278 279 280 282 282
272 272 270 270 271 271 271 272 271 272 273 270 269 270 270 272 275 274 271 270 268 267 267 267 267 267 266 266 266 266 266 266 265 264 264 263 263 264 263 263 263 263 262 262 262 262 262 263 263 264 264 264 264 264 264 264 265 265 265 265 265 265 265 266 266 267 268 269 270 270 271 272 272 272 273 273 274 275 276 277 278 278 279 280 281 282
272 273 272 271 270 270 270 270 271 273 272 270 270 271 271 273 274 271 268 267 267 267 267 266 266 266 266 265 265 265 265 264 264 263 263 263 263 262 262 262 262 262 262 261 261 261 262 262 263 263 263 263 263 263 263 263 264 264 264 265 265 265 265 265 266 266 267 268 269 269 270 271 272 272 272 273 273 273 275 277 277 277 278 279 280 281
272 273 274 273 271 271 272 272 272 273 272 270 271 272 271 270 270 268 267 267 267 267 267 266 266 265 265 265 264 264 264 263 263 263 263 262 262 262 261 261 261 261 261 261 261 261 261 261 262 262 262 263 263 263 262 262 262 263 263 264 264 264 265 265 266 266 267 267 268 269 270 270 271 271 272 272 272 272 274 276 277 277 278 279 280 280
273 272 272 272 272 272 273 273 272 270 269 270 270 270 269 268 268 267 267 267 266 267 266 266 265 265 264 264 263 263 263 262 262 262 262 261 261 261 261 261 260 260 260 260 260 260 260 260 261 261 262 262 262 262 262 261 262 262 262 262 263 263 264 264 265 266 266 267 268 268 269 270 270 271 271 271 271 272 273 275 276 277 278 279 279 280
270 267 268 271 272 271 271 271 269 268 269 270 269 269 268 268 267 267 267 266 266 266 266 265 265 264 263 263 262 262 262 262 261 261 261 261 261 261 261 260 260 260 260 260 260 260 260 260 260 260 261 262 262 261 261 261 261 262 262 261 262 262 263 263 264 265 266 266 267 268 268 269 270 270 270 270 270 271 272 274 275 277 278 278 279 279
268 266 268 271 271 271 272 270 268 268 269 269 269 269 268 268 267 267 267 266 266 266 265 265 264 264 263 263 262 262 261 261 260 260 260 260 260 261 261 260 260 260 260 260 259 259 259 259 260 260 260 261 261 261 261 261 261 261 261 261 261 262 262 263 263 264 265 266 267 267 268 268 269 269 269 270 270 271 272 273 275 276 278 278 278 279
269 268 269 270 270 270 271 270 268 268 268 268 268 269 268 268 268 267 266 266 265 265 265 264 264 264 263 263 262 261 261 260 260 260 259 259 260 260 260 260 260 260 259 259 259 259 259 259 259 259 260 260 260 260 260 261 261 260 260 261 261 261 262 262 263 264 264 265 266 267 267 268 268 268 269 269 270 271 272 274 275 276 277 278 278 278
268 268 269 269 269 269 269 269 268 268 269 268 268 268 268 268 267 266 266 265 265 264 264 264 263 263 262 262 261 260 260 260 260 259 259 259 260 260 259 259 259 259 259 259 259 259 259 259 259 259 260 260 260 259 260 260 260 260 260 260 261 261 261 262 263 263 264 265 265 266 266 267 267 267 268 269 270 271 272 274 275 276 277 277 278 278
268 269 268 267 269 269 270 270 270 270 270 269 268 268 268 267 266 266 265 265 264 264 263 263 262 262 261 261 261 260 259 260 260 259 259 260 260 259 259 259 259 259 259 259 258 259 259 259 259 259 259 259 259 259 260 260 260 260 260 260 261 261 261 262 262 263 264 264 265 265 265 266 266 267 267 269 270 271 272 273 274 275 276 277 277 278
268 270 269 269 270 270 270 270 269 269 269 268 268 267 267 266 266 265 265 264 263 263 262 262 261 261 261 261 260 259 259 259 259 259 259 260 260 259 259 258 258 259 259 258 258 259 259 259 259 259 259 259 259 259 259 260 260 260 260 260 260 260 261 261 262 263 264 264 264 264 264 265 266 267 267 269 270 271 272 273 274 275 276 276 277 277
Wind_Speed
6 3 4 6 6 8 10 9 6 3 3 6 5 4 5 5 5 4 3 5 1 4 5 7 6 8 11 10 5 4 5 8 12 15 18 18 17 17 16 17 17 17 17 14 11 11 10 8 6 4 3 2 2 3 3 3 1 2 3 3 3 2 3 6 11 15 15 11 11 13 15 14 11 10 8 6 6 6 6 5 4 9 16 21 22 22
4 6 7 6 5 8 8 5 4 2 3 4 5 5 5 5 5 5 3 4 1 3 3 2 5 10 10 8 5 2 4 8 12 13 15 17 20 20 19 19 19 17 15 12 11 12 11 10 9 7 6 5 5 5 4 4 3 2 3 2 1 2 3 5 7 11 13 13 13 13 14 16 14 12 11 8 6 6 6 6 5 6 11 13 13 15
3 6 6 4 4 4 4 4 5 3 2 4 2 4 3 4 3 4 2 3 1 3 3 2 4 8 9 7 4 4 6 10 16 18 18 20 22 22 21 20 20 19 19 17 16 16 16 14 12 11 11 11 11 11 9 7 5 4 3 2 1 1 3 4 5 6 8 11 13 13 14 15 15 14 14 11 7 6 6 6 8 9 11 11 10 11
3 5 4 4 6 6 3 3 6 3 2 3 3 4 3 2 2 3 3 1 2 0 1 3 3 6 6 3 4 8 12 16 20 24 25 24 22 21 22 23 23 24 24 23 22 21 20 18 16 15 15 14 12 11 11 10 8 6 6 4 2 0 3 3 3 4 5 7 10 12 13 13 13 14 15 14 12 10 9 8 8 10 11 11 11 12
4 3 2 5 6 7 4 3 6 5 4 4 4 5 3 3 5 3 2 1 2 1 1 3 2 5 5 1 3 6 13 16 18 22 25 24 21 22 24 26 27 27 26 26 25 24 24 23 21 20 18 16 15 13 13 14 12 10 9 7 5 3 0 2 2 3 4 5 7 9 12 11 9 11 14 16 16 15 15 13 12 12 12 13 13 14
6 2 5 5 3 6 6 4 6 7 5 4 5 8 6 7 7 3 3 3 3 2 2 2 0 4 5 1 2 1 7 11 14 17 19 20 20 21 24 25 26 27 26 26 26 25 25 25 23 22 20 19 19 19 17 16 15 12 10 9 7 5 3 2 1 1 2 3 3 5 9 11 9 7 8 10 13 15 15 16 16 15 14 14 15 15
3 0 3 5 4 5 5 4 5 7 5 3 4 7 8 6 7 7 6 4 2 4 2 2 4 4 5 4 2 2 7 9 11 14 15 17 18 19 19 20 23 26 25 25 26 25 25 25 24 23 22 21 21 20 18 16 14 12 10 9 7 7 6 4 2 0 1 1 1 2 5 9 10 8 6 6 8 10 12 16 19 18 16 16 16 16
1 2 3 4 4 4 5 3 5 9 6 2 2 5 8 7 7 8 8 5 2 3 2 2 3 2 3 2 0 5 9 9 10 12 13 16 17 17 18 18 21 24 24 24 25 26 27 26 26 25 23 22 21 18 16 14 13 11 10 9 8 7 6 5 4 2 1 1 0 1 3 5 7 9 9 8 8 9 11 15 17 17 15 16 18 18
0 2 2 3 3 3 4 3 5 10 6 2 1 4 6 5 6 5 6 4 1 1 2 4 2 3 5 4 1 4 7 7 9 10 10 13 16 16 18 19 21 23 24 26 27 27 28 26 26 25 23 21 19 16 15 14 13 12 10 9 8 6 6 6 5 3 2 2 2 1 2 4 5 7 9 10 11 13 14 16 17 17 16 16 19 19
0 1 1 3 3 2 2 2 2 6 4 2 4 6 6 6 5 4 4 4 3 1 5 7 5 3 4 4 1 3 5 5 5 7 8 11 15 15 17 21 25 27 28 28 28 28 27 26 25 23 21 20 19 17 15 14 13 11 10 9 7 6 6 6 5 4 3 2 2 2 2 4 6 7 9 10 11 13 14 15 15 17 17 17 19 20
2 1 2 1 1 2 3 2 2 2 4 5 5 6 7 6 4 4 2 3 3 3 7 8 7 4 4 3 0 2 4 3 4 5 6 10 14 15 18 25 29 29 30 29 28 28 27 26 24 22 21 19 19 17 15 14 13 12 11 10 9 8 7 7 6 5 4 4 4 3 3 1 3 5 8 9 10 11 12 13 13 14 16 17 18 18
5 1 2 1 1 1 3 4 4 3 3 5 4 5 5 3 4 4 4 3 2 6 6 3 4 5 4 4 1 4 5 6 5 5 5 8 11 12 16 25 30 31 31 31 29 29 28 26 26 24 23 22 20 19 18 18 17 15 14 13 11 9 9 8 8 7 6 5 5 5 5 4 3 3 5 7 8 10 11 12 13 14 14 15 16 17
3 2 1 1 1 4 3 3 5 4 3 4 4 5 4 2 3 1 3 0 3 6 2 2 1 3 3 2 4 6 7 8 7 7 6 6 8 10 15 24 30 31 32 32 32 31 30 29 29 29 28 27 25 25 24 23 21 20 18 17 14 13 12 11 10 9 8 7 6 6 5 4 4 3 3 5 7 8 10 11 12 13 14 15 16 16
3 3 4 2 2 6 3 3 1 1 0 3 4 5 4 2 2 3 4 1 4 5 2 2 1 1 3 1 6 7 8 9 8 9 8 7 8 10 15 23 29 31 32 32 32 32 32 32 31 31 31 31 30 30 29 28 26 24 23 20 18 17 15 13 12 11 9 8 8 7 7 6 5 4 4 5 7 8 9 10 11 12 13 14 15 16
1 4 4 1 2 5 4 1 2 3 3 3 3 5 4 5 4 5 4 3 4 1 2 2 1 2 3 3 7 9 10 9 9 9 8 8 9 11 16 23 29 30 31 32 31 32 32 31 31 31 31 31 31 31 30 30 29 28 27 25 23 21 18 16 14 13 11 10 9 9 8 7 7 6 5 5 6 8 9 10 11 11 12 14 15 16
0 4 4 3 3 3 4 2 1 3 1 2 2 4 2 5 4 2 4 4 3 1 1 2 1 1 2 5 6 9 9 8 8 7 7 8 8 11 17 23 27 28 29 31 30 31 31 30 31 31 31 31 30 30 31 30 30 29 29 28 27 25 23 20 17 15 14 13 12 11 10 8 8 8 7 7 6 8 9 9 10 11 13 14 15 17
1 3 4 4 2 2 3 3 2 1 2 0 2 3 2 2 6 3 2 1 3 1 3 3 2 1 3 3 4 7 6 6 5 5 7 8 9 11 15 20 24 26 27 29 29 30 30 30 30 30 30 31 30 30 30 30 29 29 29 29 28 27 26 24 22 19 17 15 13 12 11 10 10 9 9 9 9 9 9 9 10 11 13 14 15 16
0 4 4 4 1 2 5 3 2 3 2 3 2 3 1 1 4 3 2 2 2 4 4 2 5 5 4 3 6 9 7 5 5 4 6 7 10 12 14 17 22 24 25 26 28 28 29 29 29 29 30 30 29 30 29 29 28 28 28 28 28 28 27 27 26 24 22 19 16 14 14 13 13 12 11 11 11 11 11 11 11 11 12 13 14 15
1 3 5 3 2 6 8 2 1 4 3 3 2 1 2 2 1 2 3 1 2 5 5 3 3 4 4 4 8 11 10 8 5 4 5 7 9 10 12 15 20 22 24 25 26 27 28 28 28 28 28 28 28 28 28 28 28 28 28 28 28 28 28 27 27 26 25 24 21 19 17 16 15 14 13 12 12 11 12 12 12 12 12 12 13 13
2 0 4 4 3 5 6 3 0 4 5 3 2 3 3 2 3 2 3 2 3 5 6 5 3 1 1 3 9 11 9 9 6 5 5 6 8 8 10 13 18 21 23 24 25 26 27 27 27 27 27 27 27 27 27 27 27 27 28 28 27 27 26 27 27 26 26 27 25 23 20 18 16 15 14 14 14 13 13 12 12 12 12 12 13 13
3 2 3 5 6 3 3 2 1 1 3 4 4 3 3 2 1 1 1 2 4 3 4 5 4 1 2 2 8 11 10 8 7 6 5 5 7 7 9 12 16 19 22 24 24 25 25 25 26 26 26 26 26 26 26 26 27 27 27 28 28 28 28 27 27 27 28 28 27 26 25 22 19 17 16 15 15 15 14 13 13 13 12 12 12 13
2 2 2 3 4 2 1 1 2 1 1 1 2 2 2 2 1 1 4 1 2 2 4 4 4 1 3 3 7 10 8 8 7 6 5 5 6 6 8 11 15 18 20 23 23 23 24 23 24 25 25 25 25 25 26 26 26 27 27 27 28 28 28 29 28 28 28 28 28 28 27 26 24 21 18 17 16 16 16 15 14 14 14 12 11 12
2 1 1 2 2 3 3 1 2 2 1 2 2 2 2 1 1 1 4 2 2 2 1 2 3 1 3 5 7 8 8 8 8 7 6 5 5 6 8 11 14 17 19 21 22 22 23 23 23 23 23 23 24 24 25 25 26 26 27 27 27 27 28 28 28 29 28 28 28 27 27 27 26 24 22 20 18 17 17 17 16 15 16 15 12 11
2 1 1 3 4 3 5 3 2 1 1 3 2 3 3 2 2 0 2 1 1 2 1 2 4 1 2 4 8 9 9 9 7 6 6 5 4 5 8 10 13 17 18 19 20 21 22 22 22 22 22 23 23 24 24 25 25 26 26 26 26 27 27 27 27 28 29 29 28 27 27 27 26 26 25 24 22 19 18 19 18 17 16 16 15 12
2 1 2 3 5 5 5 5 5 4 3 2 1 2 3 3 4 2 1 1 1 1 2 3 4 2 4 5 7 8 8 7 6 6 5 4 4 4 7 10 12 16 18 19 20 21 21 22 22 23 23 23 23 24 24 24 25 26 26 26 26 26 26 26 26 27 28 29 29 29 28 28 28 27 26 26 25 23 21 20 20 19 18 18 16 14
0 1 2 1 3 4 2 2 3 3 2 2 2 2 2 4 5 2 1 1 2 0 4 1 1 3 4 5 6 5 5 5 5 5 5 5 5 4 6 9 11 15 18 20 21 22 22 23 23 24 24 24 24 24 24 24 25 25 25 25 26 27 27 26 26 26 27 27 29 29 29 30 29 28 28 27 26 25 24 22 21 21 21 20 19 16
2 1 1 4 5 5 5 5 3 1 1 3 3 4 2 1 1 1 0 1 1 2 3 0 2 3 2 4 5 4 3 4 4 4 4 4 5 4 6 7 8 13 17 19 21 23 23 23 23 24 24 25 25 25 25 25 25 25 25 26 26 27 27 27 26 27 26 27 27 27 28 29 29 29 29 28 27 26 25 23 22 21 22 22 21 18
3 2 1 4 5 6 4 4 3 2 2 5 6 6 4 2 0 2 3 4 1 2 3 0 4 2 3 3 3 3 2 2 3 3 3 3 4 5 6 7 9 12 16 19 21 23 24 24 25 25 26 26 26 25 25 25 25 25 26 26 27 27 27 27 27 28 28 27 27 27 27 27 27 28 29 29 29 27 26 25 23 22 22 22 22 21
3 3 2 3 4 6 3 4 4 1 4 5 5 6 6 4 2 3 6 5 3 2 5 0 3 6 6 1 2 3 3 3 3 3 2 2 5 7 9 11 12 14 17 19 21 23 25 26 27 27 27 28 27 27 26 25 25 24 24 25 25 26 27 27 28 28 28 28 28 28 28 27 27 27 27 29 29 29 28 27 26 24 23 22 22 22
3 1 2 2 3 6 5 5 4 3 4 4 5 6 6 5 5 5 5 3 3 5 7 4 6 9 5 1 4 5 5 4 5 4 2 1 5 8 10 13 14 16 19 20 22 24 26 28 29 29 29 29 29 29 29 28 27 26 26 25 25 26 27 27 28 28 28 28 28 29 29 29 28 27 27 28 29 29 29 29 28 26 24 23 23 23
2 0 0 3 2 6 5 4 3 3 3 4 6 6 5 6 6 4 4 3 2 5 7 6 8 6 1 4 6 6 5 4 5 3 2 1 2 5 8 11 14 16 19 20 22 25 28 29 30 30 31 31 30 30 30 30 29 29 28 28 27 27 27 28 28 27 27 28 29 29 30 30 30 29 29 28 28 28 28 28 28 28 26 24 23 23
2 1 2 4 3 6 5 4 4 2 2 4 8 8 7 6 4 3 4 4 4 5 6 7 6 4 1 3 4 5 4 3 3 2 1 1 3 4 6 8 11 15 18 20 23 27 29 30 31 32 32 32 32 32 31 31 31 30 29 29 29 29 29 29 28 28 28 28 28 29 30 31 32 31 30 29 29 28 28 27 27 28 28 26 23 22
2 1 1 2 2 5 4 4 4 4 4 6 6 5 8 7 5 5 5 5 5 5 5 6 4 1 2 3 3 3 3 2 0 1 2 3 5 6 8 9 12 14 17 21 25 28 30 31 32 32 33 33 33 33 33 32 33 32 31 31 30 30 30 29 29 29 29 28 28 29 29 31 32 32 31 31 30 29 28 27 27 27 28 27 25 22
1 3 1 1 1 3 5 5 5 3 5 6 2 1 4 4 5 7 7 6 4 2 1 2 1 2 2 3 3 4 3 2 2 3 5 6 7 8 9 11 13 15 18 23 28 30 31 32 32 32 33 33 33 34 33 33 33 33 33 32 32 31 31 30 29 29 29 29 29 29 29 30 31 32 32 32 31 30 29 28 27 27 27 26 25 22
2 3 1 1 2 2 4 5 4 5 7 4 4 3 3 1 2 4 5 7 5 4 3 3 3 3 4 3 3 2 1 2 3 4 5 6 7 7 8 10 12 16 22 26 30 32 32 33 33 33 34 34 33 34 33 33 34 35 34 34 33 33 32 32 30 30 29 29 29 29 30 30 31 32 32 32 32 32 30 28 27 27 27 26 24 22
3 3 1 1 2 0 1 2 3 7 7 6 8 6 3 2 1 1 4 7 6 5 5 4 3 4 5 4 2 1 3 4 5 4 6 7 6 6 7 9 14 20 25 28 31 32 33 33 34 34 34 34 34 33 33 34 35 35 35 35 34 34 33 33 32 31 30 29 29 29 30 31 31 32 32 32 33 33 31 29 28 27 26 26 24 20
4 3 1 1 2 2 1 2 3 6 8 8 6 3 0 1 1 1 2 5 3 2 3 4 3 3 4 3 1 2 5 6 4 3 7 8 7 6 8 13 19 25 28 29 31 31 31 32 32 33 34 34 33 33 33 34 35 35 36 36 35 34 34 33 32 31 31 30 29 29 29 30 31 32 32 32 32 33 32 30 29 26 24 24 25 21
3 3 3 2 1 3 1 3 3 4 6 6 3 1 1 0 1 1 1 2 1 1 2 5 5 4 4 2 1 3 4 5 3 3 7 8 6 7 12 19 24 27 29 31 31 31 30 31 31 32 33 33 33 32 32 33 34 34 36 36 35 35 34 33 32 31 31 30 29 29 29 30 31 31 32 32 32 32 32 30 29 26 23 23 25 22
4 2 3 3 1 2 3 1 2 3 6 6 3 1 1 0 1 3 3 4 2 2 3 5 7 7 6 5 2 1 2 3 3 1 5 6 7 12 19 24 27 28 30 30 30 30 30 31 31 32 32 32 31 30 30 32 32 34 35 35 35 34 33 32 33 32 31 30 29 29 29 29 30 31 31 32 32 31 31 30 29 26 24 23 24 21
5 3 1 3 3 2 3 2 3 4 6 5 3 4 3 1 2 3 2 6 4 5 5 5 7 7 6 6 4 2 1 3 3 2 5 9 14 19 23 26 28 29 30 29 29 29 30 30 31 32 33 31 30 30 30 31 32 33 34 34 34 33 32 32 33 32 31 30 29 29 29 29 30 30 31 32 31 31 30 29 28 26 24 24 25 22
3 2 1 2 3 4 5 4 4 4 6 4 4 7 6 3 4 2 4 5 6 8 7 5 5 5 5 6 6 5 5 7 9 12 15 18 21 24 26 27 29 29 29 29 29 29 29 30 31 32 32 30 29 29 29 30 32 33 33 34 33 32 31 33 34 32 31 31 30 29 29 29 30 30 30 31 30 30 30 28 27 25 24 25 26 23
0 1 0 2 2 2 3 3 3 5 5 4 7 7 6 4 1 4 4 5 9 9 7 4 4 5 6 8 10 10 12 13 15 18 20 22 25 27 28 28 28 28 28 28 27 27 28 30 30 31 31 29 27 27 28 30 32 33 33 34 33 31 32 33 33 33 32 31 30 30 29 29 29 30 30 30 29 29 29 28 26 24 24 25 27 24
3 2 2 3 3 2 1 1 2 5 4 10 12 5 3 3 2 4 7 8 8 7 5 5 7 8 9 10 12 14 16 18 19 21 23 25 26 27 27 27 28 28 28 27 27 26 27 28 30 30 29 27 26 26 27 28 31 32 33 33 32 31 32 33 33 33 33 31 31 30 29 29 29 29 30 29 27 27 27 27 25 24 24 26 27 25
3 4 3 3 3 3 2 4 4 4 6 15 13 2 3 6 4 3 7 6 5 5 6 7 9 10 10 12 13 15 18 20 21 23 26 27 27 27 27 27 26 26 26 26 26 26 26 28 29 29 28 26 24 25 26 27 29 31 31 31 30 30 32 32 32 33 32 31 31 30 29 29 28 28 28 27 26 26 26 26 24 24 24 26 27 25
4 4 3 2 3 4 4 7 6 3 6 16 15 7 3 6 6 5 5 5 6 7 8 9 10 11 12 13 15 17 19 21 23 25 26 27 27 27 27 27 26 25 25 25 25 25 26 27 28 28 28 25 23 23 24 25 27 30 30 29 28 29 31 31 31 32 31 30 30 29 28 28 27 27 26 24 23 24 25 25 24 24 25 26 26 25
3 3 3 1 2 4 6 8 8 6 7 14 18 15 11 9 8 8 8 8 8 9 9 10 11 13 13 14 16 18 21 23 24 25 26 27 27 27 26 26 26 24 25 25 24 25 26 26 27 27 27 25 22 22 23 23 24 26 27 27 27 27 28 29 30 30 30 29 29 28 27 27 26 25 23 21 21 23 24 25 24 24 25 26 26 26
1 3 3 2 2 3 4 4 3 4 7 10 14 17 17 15 14 12 11 11 11 11 12 12 13 14 14 16 19 21 23 24 24 25 26 26 27 26 26 26 25 24 24 24 24 24 25 26 26 26 26 25 22 21 22 22 21 23 24 25 26 26 27 27 28 29 28 27 27 26 25 25 24 23 21 19 19 21 24 24 23 24 25 26 26 27
1 3 2 3 3 3 5 6 5 8 11 11 13 16 17 17 16 14 13 13 13 14 14 14 15 15 17 19 21 23 24 23 23 25 26 26 26 26 25 25 25 24 24 23 23 24 25 25 26 25 25 24 23 22 22 21 20 21 22 23 24 25 26 26 27 27 27 25 25 25 24 23 22 20 19 18 17 18 21 22 21 22 24 25 27 29
3 2 3 2 3 5 8 9 9 11 12 11 11 13 14 14 14 14 14 15 15 15 15 15 16 17 19 21 22 23 23 23 23 24 26 26 25 25 24 23 23 23 23 23 22 23 24 24 24 24 24 23 23 22 22 20 19 20 21 22 22 23 25 26 26 26 25 23 23 23 22 21 19 18 18 16 14 14 17 18 18 19 21 24 26 28
4 3 2 1 3 6 6 5 5 5 6 7 7 8 9 10 12 13 14 15 15 15 15 16 17 18 20 21 21 21 22 23 23 23 24 25 24 23 22 22 22 22 22 23 23 23 23 23 23 23 23 22 22 21 21 19 19 19 20 20 21 22 24 25 25 25 23 22 21 21 20 19 17 16 15 13 10 9 10 11 13 16 19 23 25 26
11 9 6 4 6 7 4 4 6 6 6 8 9 10 10 10 11 13 14 14 14 15 16 17 19 20 19 19 19 20 22 22 21 22 23 23 22 21 21 21 22 22 22 22 23 23 23 22 22 22 22 21 20 20 20 19 18 18 19 19 20 22 23 24 24 24 23 21 20 19 18 17 16 14 12 10 8 5 5 6 10 14 16 17 19 20
Wind_Direction
157 154 210 209 201 199 205 206 189 113 126 163 162 175 190 194 242 251 250 290 199 154 230 217 220 248 251 260 276 303 334 6 11 26 41 44 45 44 44 45 49 53 50 47 45 46 46 46 48 56 84 108 181 190 200 197 146 103 134 153 153 164 236 253 248 244 242 221 204 217 222 221 228 236 236 235 255 250 231 244 292 285 256 241 243 243
151 202 224 209 196 196 199 176 133 99 75 103 157 193 217 204 236 255 228 311 314 177 261 208 211 251 257 264 277 343 20 29 32 37 38 46 54 51 51 52 56 59 54 53 52 52 56 56 64 76 90 104 102 100 130 154 127 119 158 156 155 205 237 259 265 254 247 232 216 221 223 221 224 230 234 231 242 246 236 238 234 254 259 252 259 253
184 232 231 194 172 144 138 144 160 191 103 94 129 164 222 222 239 275 254 326 8 185 270 158 187 250 261 265 302 31 70 63 57 63 55 53 57 50 49 50 53 57 53 55 56 58 62 63 70 78 83 89 86 89 99 110 118 129 139 116 81 265 266 269 274 263 254 241 226 223 224 229 232 232 234 233 235 245 246 241 233 240 254 262 273 271
193 244 243 175 145 124 113 157 166 182 176 156 133 150 220 218 186 260 243 311 17 125 220 151 190 271 279 295 32 50 78 75 62 67 63 58 59 53 54 54 54 57 55 57 60 61 66 67 71 74 77 82 85 92 92 90 95 97 95 84 75 20 282 275 276 268 258 248 234 229 227 233 242 241 241 244 244 252 255 245 241 245 247 258 267 268
238 240 153 139 150 154 151 159 168 183 224 217 191 184 195 182 192 229 197 128 16 338 105 98 7 309 285 238 101 58 68 65 50 56 55 50 55 57 60 59 58 58 57 58 59 60 64 65 66 69 72 78 79 81 80 76 74 74 80 77 76 87 125 235 252 268 260 253 240 232 228 230 238 238 240 248 250 252 256 253 250 250 246 252 263 269
269 220 123 123 159 172 161 180 186 181 207 238 226 203 187 182 186 166 134 100 57 285 255 109 264 296 304 319 152 1 54 56 41 47 46 38 43 49 52 53 55 58 58 59 58 59 63 64 66 68 70 74 73 71 70 71 71 71 76 76 76 83 89 119 193 243 263 260 244 230 224 224 231 230 224 233 242 248 254 256 254 250 246 248 255 263
259 82 100 131 161 175 184 215 198 174 181 232 238 199 174 157 154 147 147 127 130 234 276 113 182 256 316 10 40 67 74 65 45 46 44 38 38 41 43 42 46 52 55 58 59 59 61 62 64 64 63 65 65 65 66 69 72 73 74 74 71 70 73 73 73 120 266 247 203 187 199 217 233 242 230 213 222 235 243 248 248 248 246 246 249 254
198 18 33 128 135 152 191 229 200 175 167 225 254 173 156 146 154 165 162 156 197 224 335 20 151 214 282 302 190 105 81 57 42 42 39 38 37 38 37 34 39 46 50 53 56 57 57 59 59 58 58 59 60 61 63 66 68 67 67 67 66 65 68 66 58 34 332 333 27 159 177 204 225 239 244 237 233 235 238 241 242 244 243 239 243 247
31 36 24 150 135 152 198 248 203 175 168 267 280 126 133 135 145 155 148 148 350 60 271 277 156 173 260 269 260 108 84 54 44 40 34 34 32 31 31 34 44 51 53 56 58 58 57 57 57 56 57 58 57 57 58 58 57 58 59 61 63 65 68 67 60 46 15 352 341 297 232 223 227 236 245 246 248 249 248 244 238 239 237 231 235 241
86 159 232 149 146 186 215 301 219 168 176 199 125 93 77 68 75 82 111 121 46 45 227 228 176 176 267 278 307 81 75 66 62 51 39 35 34 32 35 45 55 59 61 61 61 60 58 57 57 57 58 58 55 54 53 53 51 51 54 54 55 53 54 57 57 54 38 18 355 312 281 256 251 252 253 253 257 258 258 253 243 239 237 230 227 230
314 281 235 159 171 196 145 53 19 121 148 145 111 75 63 45 40 49 51 88 75 264 238 216 185 181 256 268 273 54 48 72 107 78 46 38 39 40 45 52 57 58 59 60 60 62 60 59 59 58 58 56 54 51 49 48 44 42 44 44 46 47 47 48 49 54 50 46 44 38 37 339 279 269 265 266 269 270 271 268 261 253 247 240 233 228
344 329 233 260 254 160 117 65 31 58 103 101 89 84 81 10 11 29 356 49 154 243 259 247 189 164 225 255 82 69 53 63 91 87 64 50 42 37 42 50 54 54 55 56 57 57 57 58 58 56 55 53 51 48 44 41 37 35 35 34 37 41 44 45 45 48 49 50 52 51 49 41 13 324 289 279 280 281 281 278 274 270 264 257 250 243
330 221 271 334 48 46 75 78 36 7 20 62 86 97 98 358 13 9 282 249 221 248 286 313 169 131 227 233 101 89 73 69 78 83 82 72 51 33 37 47 51 52 52 52 52 52 52 52 51 51 50 49 49 47 44 42 38 34 32 28 28 29 29 32 36 38 41 39 39 39 35 31 24 3 323 298 289 288 288 286 281 278 276 271 264 256
325 296 345 357 31 21 39 136 86 307 280 115 132 124 133 140 121 224 238 258 261 265 295 278 137 129 260 129 108 104 91 87 87 84 82 75 59 42 40 46 49 49 50 50 49 49 48 48 47 47 46 46 46 45 43 43 41 37 34 31 29 27 23 22 24 26 30 31 30 27 21 12 1 347 329 309 299 296 294 292 288 285 282 278 274 267
241 280 327 349 314 358 20 129 157 158 160 187 162 132 153 170 170 211 216 212 235 268 332 284 170 201 234 93 103 110 101 100 95 85 77 64 53 44 42 44 46 46 47 48 49 48 47 46 46 45 44 43 43 41 40 40 39 38 37 33 30 28 24 20 18 17 19 22 22 19 12 2 350 339 329 317 306 301 297 294 289 288 285 281 278 273
170 259 276 300 288 355 10 325 83 95 163 247 123 112 183 193 156 166 193 180 168 108 342 255 205 199 123 85 100 113 108 108 99 78 63 49 38 41 40 40 43 43 44 45 46 47 47 46 44 43 42 41 40 39 37 35 35 35 35 35 33 32 29 24 20 16 15 17 16 14 9 360 350 337 323 311 304 300 297 295 291 288 286 284 281 278
14 278 291 319 293 54 8 302 0 45 224 227 115 168 233 164 112 114 233 50 76 210 238 173 154 121 120 120 140 138 126 117 102 68 57 45 35 40 38 36 39 40 42 42 42 43 44 45 43 41 40 38 37 36 34 33 32 30 30 30 30 31 31 30 26 19 14 12 12 13 11 6 357 346 334 322 316 312 302 296 290 287 286 284 282 280
171 272 310 352 273 314 343 318 3 22 104 102 175 212 251 64 93 112 223 5 39 242 253 178 165 170 176 168 152 162 160 130 106 69 58 43 37 40 34 33 36 37 40 41 41 41 41 41 40 39 37 36 35 34 32 30 29 28 27 25 25 25 26 27 27 25 19 12 9 10 10 10 4 357 348 335 325 319 311 304 296 291 289 286 284 281
92 287 306 349 277 307 347 2 271 354 37 113 225 263 86 173 221 131 177 199 215 234 261 253 193 182 202 178 157 171 164 136 118 79 61 40 36 35 27 28 33 35 37 38 38 37 37 36 35 33 32 31 31 30 28 26 24 24 23 22 22 21 21 21 21 23 23 19 15 13 11 9 5 1 354 343 333 323 314 309 304 300 297 293 288 283
46 57 284 315 311 313 359 29 292 339 345 3 350 350 49 150 190 176 180 164 174 222 246 247 216 173 258 169 151 153 137 124 117 85 66 46 41 34 24 25 28 30 32 32 33 32 31 30 28 26 26 24 24 23 22 20 19 18 17 16 16 16 15 16 15 16 18 18 16 15 14 10 5 1 356 349 340 331 323 316 310 304 299 298 295 288
22 97 254 310 341 339 19 42 65 3 333 351 3 343 351 347 272 281 275 113 122 188 233 240 230 216 9 69 125 120 110 113 111 95 82 60 49 39 29 26 26 27 26 27 28 26 25 24 21 20 18 17 17 16 15 14 13 12 11 10 10 9 8 9 10 11 12 12 12 12 12 10 6 1 355 351 345 337 328 320 315 310 302 298 297 294
27 89 246 316 347 349 65 167 196 210 246 358 349 334 357 330 302 249 249 228 99 185 185 202 241 272 58 77 98 99 102 105 99 99 99 73 52 39 31 26 24 23 22 22 22 20 18 15 13 11 9 7 7 6 6 6 5 5 5 4 5 4 4 4 4 5 6 6 6 7 8 7 6 3 357 351 345 340 333 324 318 316 310 303 298 296
114 104 294 290 268 258 285 274 195 232 218 94 55 12 17 348 62 189 244 290 355 283 143 168 246 337 79 95 98 102 105 101 95 95 98 85 59 38 28 22 20 19 18 17 16 14 11 8 6 4 2 1 360 359 358 357 357 357 356 356 357 357 358 358 358 359 359 359 360 1 2 2 2 2 359 353 347 342 338 332 324 318 315 310 306 304
76 68 311 295 305 315 315 326 15 348 38 81 49 22 20 352 30 193 249 19 333 282 19 214 233 184 112 115 110 115 112 106 100 89 90 93 66 37 25 18 12 12 12 12 11 9 6 3 1 0 359 359 358 357 356 354 352 351 349 348 347 348 349 350 350 351 350 351 352 354 355 355 356 357 357 355 351 345 340 336 330 324 318 312 308 309
28 45 54 349 330 333 338 345 352 352 19 53 347 5 19 358 0 328 271 57 250 243 101 216 243 94 128 135 118 121 117 111 101 83 84 84 65 37 22 16 6 3 5 5 5 4 2 0 358 358 357 356 355 354 353 351 349 348 348 346 343 341 341 341 342 341 341 342 343 345 347 349 350 351 353 353 351 347 341 337 333 329 323 315 308 307
44 88 95 98 279 280 288 287 294 316 336 3 358 344 2 13 11 348 355 24 251 31 63 184 225 79 110 137 137 137 122 118 109 85 74 69 66 46 23 15 1 358 360 360 1 1 359 359 357 356 355 353 351 350 348 346 344 344 345 344 342 339 337 336 336 335 335 335 335 337 339 341 343 346 347 348 348 346 343 338 334 330 326 320 311 306
87 47 165 171 211 233 219 227 241 29 333 292 317 318 320 3 25 102 31 286 234 8 1 226 120 89 138 166 166 162 130 129 126 96 74 57 53 41 25 18 1 356 357 358 359 358 357 357 355 354 353 351 349 347 345 342 340 339 339 338 338 337 334 334 333 332 332 331 330 330 331 333 337 339 341 342 343 344 341 338 334 329 326 322 314 307
97 328 250 170 224 243 222 245 294 27 274 266 293 303 295 278 233 140 216 235 95 26 296 87 61 7 240 184 161 173 148 127 119 92 79 50 25 4 356 1 358 355 357 358 356 355 355 354 353 351 349 348 346 344 343 341 338 336 334 333 332 331 331 330 329 329 328 327 326 326 326 327 329 331 332 334 336 337 336 335 333 329 326 323 317 309
125 256 243 163 260 275 259 271 285 268 247 255 266 275 279 281 265 221 236 234 136 191 252 296 13 295 277 302 115 138 122 116 118 96 79 7 329 324 331 342 347 350 354 356 354 353 353 351 348 347 346 345 344 342 341 339 336 334 331 329 327 326 325 325 324 323 322 322 323 322 321 322 322 323 324 325 326 327 329 330 330 329 326 324 321 312
117 248 236 151 307 311 297 272 254 223 254 266 257 260 270 271 259 250 260 255 167 217 250 266 272 272 283 43 110 116 106 114 121 115 107 324 304 310 324 333 338 342 345 348 350 350 349 347 345 343 342 343 342 341 340 338 335 334 332 330 327 324 322 320 319 319 318 319 319 318 317 316 315 315 316 317 318 319 322 324 324 324 324 324 322 317
76 2 349 91 2 305 299 290 245 215 238 268 273 277 281 280 277 268 263 262 235 245 254 251 255 263 308 86 101 112 116 116 117 115 113 147 267 296 318 326 330 334 336 340 343 344 344 343 341 339 339 339 339 338 338 337 335 334 332 329 327 325 323 320 318 317 316 315 314 314 313 311 308 308 308 310 311 312 314 316 317 318 319 320 320 318
63 12 353 39 352 285 301 331 305 317 3 279 269 270 264 264 272 253 234 233 228 248 268 272 274 275 156 111 105 110 106 98 105 93 67 199 243 286 307 315 322 327 332 336 338 338 339 339 338 337 335 335 335 335 335 335 333 332 330 328 326 324 322 321 318 315 313 312 310 309 308 307 305 303 302 303 304 305 307 309 311 312 313 314 315 315
89 111 346 27 317 280 305 331 336 13 354 283 263 252 242 238 242 245 250 254 234 228 259 274 276 268 155 145 148 135 109 94 197 311 293 253 255 282 295 304 315 322 329 333 334 334 336 335 334 333 331 331 331 331 332 332 330 329 328 326 325 323 320 318 316 314 312 309 307 305 304 303 302 300 299 299 298 298 300 301 304 305 307 308 309 309
92 117 145 196 216 282 311 339 359 344 283 271 289 280 244 242 247 247 254 267 252 203 225 269 217 140 148 157 165 162 148 168 253 276 271 257 252 264 284 300 310 318 325 329 330 332 332 331 330 328 327 327 327 327 328 327 325 325 325 325 324 323 320 317 314 313 311 308 306 304 301 299 298 296 295 295 294 294 294 295 296 297 299 301 302 303
119 124 159 204 164 263 319 2 347 264 251 279 313 281 254 276 267 255 268 273 251 205 213 247 217 166 155 148 155 176 223 275 302 291 261 242 238 251 277 297 309 319 324 326 327 327 327 326 324 323 323 323 323 323 324 323 321 321 322 323 323 323 321 318 315 312 310 308 307 305 301 298 296 294 292 291 290 289 289 290 290 290 291 292 293 295
154 149 177 183 156 262 7 96 222 250 264 288 286 268 249 266 257 274 292 274 243 201 204 223 207 153 137 138 168 244 319 321 319 290 243 233 241 257 280 302 316 322 324 324 324 323 322 321 320 319 319 318 319 320 320 319 318 318 318 319 320 320 320 318 316 312 309 307 306 305 302 300 297 294 292 290 287 286 286 286 285 285 286 285 285 286
148 135 141 205 188 153 157 219 258 298 301 286 274 268 233 247 199 137 285 268 235 166 176 171 148 147 147 152 216 314 340 328 308 236 220 235 254 268 292 313 321 322 321 320 319 318 318 317 315 314 314 314 315 318 317 316 314 314 315 315 316 317 317 317 316 311 307 305 305 303 302 301 299 295 293 291 288 285 284 283 281 280 280 279 278 278
145 155 159 176 194 129 116 294 305 317 291 265 248 259 77 9 324 78 48 286 281 100 149 151 144 160 165 164 271 342 358 334 305 208 209 230 251 281 305 315 318 317 316 314 314 315 315 314 312 312 312 312 313 315 314 312 311 311 310 312 314 315 315 316 314 309 305 304 303 301 301 301 300 297 294 292 289 286 284 280 278 277 274 271 270 269
58 48 130 147 248 118 120 237 231 228 252 249 238 231 166 230 334 49 35 313 284 132 140 142 144 164 176 181 198 34 21 316 301 197 201 235 272 295 306 310 311 311 311 311 313 314 312 312 311 310 309 310 312 312 310 309 309 308 308 310 311 312 315 314 310 306 304 303 301 301 301 301 299 297 295 293 289 287 284 280 276 273 268 264 264 262
37 20 111 177 229 194 159 207 231 236 252 249 217 193 188 179 47 60 333 282 240 169 166 154 153 171 186 188 179 139 165 262 285 286 263 279 293 298 303 307 308 310 311 312 313 313 311 309 308 306 307 309 311 311 309 307 306 305 306 308 309 312 314 311 306 304 304 301 300 300 300 300 298 296 295 293 289 286 282 278 274 271 265 260 258 255
15 356 125 159 207 216 214 243 268 257 249 237 184 173 169 116 70 108 241 237 182 169 174 166 169 199 221 219 215 221 243 259 280 289 289 293 299 302 306 308 309 310 312 312 312 311 309 307 306 305 305 308 310 309 307 305 303 303 305 306 308 313 312 307 304 305 304 300 300 299 299 298 298 296 294 292 288 284 279 275 272 268 263 257 254 249
289 340 22 133 166 203 208 234 285 286 261 179 146 156 154 125 148 218 199 155 151 165 181 198 228 252 260 256 256 264 273 279 285 290 296 301 305 308 310 311 311 311 311 312 312 311 308 305 304 303 304 307 309 307 305 302 301 301 303 304 308 312 308 305 305 306 303 301 300 299 298 298 297 296 294 291 287 282 276 272 269 265 258 254 250 246
181 173 239 215 184 150 110 175 260 287 244 149 132 127 169 177 194 164 147 144 155 171 196 236 256 267 269 271 276 281 285 291 294 297 302 306 308 310 311 312 312 312 312 313 313 312 310 305 303 303 305 308 309 306 305 303 301 301 302 305 308 309 305 304 306 305 303 303 302 300 299 298 296 295 293 290 288 283 275 269 266 261 254 250 247 243
200 185 216 241 188 143 151 197 211 259 203 167 159 172 219 204 213 149 148 169 197 211 232 251 262 272 274 277 284 287 290 295 300 303 307 308 309 311 313 314 314 313 313 314 313 312 310 306 304 305 305 308 309 307 305 304 303 302 303 306 308 306 304 304 305 304 303 304 303 302 301 299 297 295 293 290 287 282 275 269 265 259 250 245 243 240
227 185 175 222 219 187 202 222 228 256 188 185 198 230 218 203 226 221 209 238 248 249 258 260 262 273 279 281 285 289 294 299 303 305 307 308 310 313 314 315 316 316 315 313 312 311 309 306 307 307 307 309 310 307 305 305 304 303 304 307 308 306 305 305 304 303 304 304 304 303 301 300 297 295 292 288 285 280 275 269 264 257 247 241 238 236
238 146 135 175 266 275 265 250 247 260 233 212 220 235 241 242 250 251 260 273 272 272 276 272 271 278 281 283 288 293 298 301 303 305 307 308 311 314 315 315 316 317 315 312 311 311 309 308 308 308 308 311 312 308 306 306 304 304 305 307 308 307 307 306 305 305 305 305 304 303 302 301 298 294 290 286 281 278 274 269 262 252 243 239 236 233
246 152 174 229 287 301 277 251 234 256 252 234 231 240 247 254 260 264 272 278 279 281 282 279 281 285 284 288 294 298 300 302 303 305 308 310 312 314 315 316 317 316 314 313 313 312 310 309 310 310 310 312 314 311 309 308 307 306 306 308 309 309 308 308 307 307 306 306 305 303 302 301 297 293 290 286 281 276 271 266 258 248 240 236 233 231
172 138 196 221 204 224 258 269 282 285 275 261 252 252 254 259 265 270 275 277 276 278 280 280 283 284 286 292 297 298 299 301 304 307 309 309 311 314 316 316 315 313 313 313 313 312 311 311 312 312 312 314 316 315 312 311 311 309 308 309 310 310 310 310 309 308 308 308 305 303 302 300 296 293 292 289 285 278 270 262 254 246 239 234 232 232
146 172 209 199 220 268 282 283 286 290 285 272 261 261 262 265 269 270 270 271 272 274 276 278 280 283 288 294 297 297 298 301 305 307 307 307 310 314 315 315 313 312 313 314 313 312 312 312 313 313 314 317 318 316 314 314 314 312 311 311 313 313 313 313 311 310 310 308 305 303 301 298 294 293 294 292 285 275 269 262 255 247 240 236 234 234
159 215 202 144 264 270 269 257 246 265 285 280 276 279 275 270 269 268 269 272 274 274 275 277 281 285 290 293 295 295 297 301 305 304 303 306 311 314 315 314 312 312 313 314 314 313 313 313 314 315 316 318 318 316 316 317 316 314 312 314 316 317 316 315 314 312 311 309 306 303 300 296 292 291 291 287 276 263 259 256 248 240 237 237 236 233
209 227 207 201 251 259 253 244 237 244 270 281 284 286 283 277 275 273 274 276 274 274 277 280 284 287 289 291 293 295 297 301 303 302 302 306 310 313 314 314 313 313 314 314 314 315 315 315 315 316 317 319 318 316 318 319 319 316 316 319 321 320 319 319 317 315 314 313 310 307 302 296 291 288 283 274 255 222 193 196 212 216 218 225 229 226